[[{"header":{"parameterUnit":"m.s-1","parameterCategory":2,"la1":30.2992,"la2":30.254,"lo1":-89.0895,"lo2":-89.0443,"dy":0.0025,"dx":0.0025,"nx":19,"ny":19,"refTime":"2026-03-21T21:00:00:Z","depth":"0","parameterNumber":2,"parameterNumberName":"U-component_of_CURRENTS"},"data":[0,0,0,0.3614,0.3619,0.3777,0.3777,0.4017,0.4019,0,0,0,0,0,0,0,0,0,0,0,0.3509,0.351,0.3614,0.3619,0.3777,0.3777,0.4016,0.4019,0,0,0,0,0,0,0,0,0,0,0,0.3509,0.351,0.3511,0.362,0.3777,0.3777,0.4015,0.3878,0,0,0,0,0,0,0,0,0,0,0.3716,0.3612,0.351,0.3511,0.3621,0.3777,0.3777,0.3871,0.3887,0.3967,0,0.3982,0,0.4049,0.4039,0.404,0,0,0,0.3583,0.3597,0.3674,0.3511,0.3623,0.3777,0.3695,0.3879,0.3897,0.3989,0.3986,0.3996,0.4053,0.4041,0.4043,0.4299,0.4299,0,0,0.3574,0.3514,0.366,0.3684,0.3656,0.3691,0.3701,0.3889,0.3887,0.3987,0.4003,0.4057,0.4043,0.4046,0.4298,0.4299,0,0,0,0.3574,0.3507,0.3575,0.3673,0.3723,0.3696,0.3708,0.3876,0.3908,0.4006,0.406,0.4045,0.4049,0.4298,0.4298,0.4344,0,0,0,0.3566,0.3512,0.3571,0.3534,0.3719,0.3798,0.369,0.3892,0.3918,0.4058,0.4045,0.4052,0.4297,0.4298,0.4341,0.4312,0,0,0,0.3504,0.3506,0.3526,0.3531,0.3626,0.3796,0.3835,0.3898,0.3955,0.4041,0.4053,0.4297,0.4298,0.4339,0.431,0.4381,0,0,0,0.3433,0.3487,0.3524,0.3575,0.3625,0.3761,0.3834,0.3908,0.3969,0.4047,0.4297,0.4298,0.4338,0.4308,0.4379,0.4259,0.426,0,0,0.3477,0.349,0.3519,0.3559,0.3676,0.3737,0.3887,0.3977,0.4026,0.4231,0.4236,0.4342,0.4309,0.438,0.4332,0.4331,0,0,0,0.3517,0.3545,0.3574,0.3646,0.3741,0.386,0.3977,0.4049,0.419,0.4083,0.4355,0.4332,0.4376,0.43,0.4299,0.4258,0.4304,0.4304,0.4304,0.3517,0.357,0.3627,0.3723,0.3803,0.3966,0.4057,0.419,0.4248,0.4306,0.4382,0.4473,0.4393,0.439,0.435,0.4421,0.4421,0.4421,0.4422,0.3575,0.3599,0.3664,0.3739,0.386,0.3989,0.4209,0.427,0.4458,0.4448,0.4492,0.4364,0.4392,0.4349,0.4425,0.4424,0.4424,0.4423,0.4423,0.3551,0.3575,0.3608,0.3707,0.3819,0.3984,0.4118,0.4296,0.4453,0.4515,0.4461,0.4458,0.441,0.4561,0.4561,0.4561,0.4561,0.4561,0.4562,0.3499,0.3548,0.3569,0.367,0.3705,0.382,0.4064,0.4192,0.4384,0.4467,0.4467,0.4422,0.4515,0.4498,0.4565,0.4564,0.4564,0.4564,0.4563,0.348,0.3473,0.3507,0.3527,0.3592,0.3589,0.3845,0.4049,0.4238,0.4305,0.437,0.4466,0.4438,0.4436,0.4417,0.4459,0.4459,0.4459,0.4459,0.3426,0.3443,0.3409,0.3396,0.3413,0.3471,0.3489,0.3739,0.4079,0.4195,0.4309,0.4243,0.4249,0.4207,0.421,0.4186,0.417,0.4169,0.4169,0.3393,0.3391,0.3319,0.3297,0.3289,0.3284,0.3224,0.3344,0.3837,0.416,0.4283,0.4295,0.4204,0.4216,0.4151,0.4159,0.4119,0,0]},{"header":{"parameterUnit":"m.s-1","parameterCategory":2,"la1":30.2992,"la2":30.254,"lo1":-89.0895,"lo2":-89.0443,"dy":0.0025,"dx":0.0025,"nx":19,"ny":19,"refTime":"2026-03-21T21:00:00:Z","depth":"0","parameterNumber":3,"parameterNumberName":"V-component_of_CURRENTS"},"data":[0,0,0,0.0738,0.0738,0.0756,0.0755,0.0846,0.0847,0,0,0,0,0,0,0,0,0,0,0,0.0719,0.0719,0.0737,0.0738,0.0756,0.0755,0.0845,0.0847,0,0,0,0,0,0,0,0,0,0,0,0.0719,0.0719,0.0719,0.0738,0.0756,0.0755,0.0845,0.0813,0,0,0,0,0,0,0,0,0,0,0.0787,0.077,0.0719,0.0719,0.0739,0.0756,0.0755,0.081,0.0815,0.0861,0,0.0859,0,0.0868,0.0855,0.0856,0,0,0,0.0728,0.0766,0.0769,0.0719,0.0739,0.0756,0.0745,0.0812,0.0818,0.0867,0.0861,0.0864,0.087,0.0856,0.0857,0.1111,0.1113,0,0,0.0727,0.0728,0.0765,0.0772,0.0741,0.0744,0.0746,0.0815,0.0822,0.0861,0.0866,0.0871,0.0857,0.0858,0.1109,0.1112,0,0,0,0.0731,0.0727,0.0726,0.0768,0.0773,0.0745,0.0746,0.0819,0.0818,0.0867,0.0872,0.0858,0.0859,0.1107,0.111,0.1279,0,0,0,0.073,0.073,0.0726,0.0727,0.0771,0.079,0.0749,0.0812,0.082,0.0872,0.0858,0.0861,0.1105,0.1109,0.127,0.1346,0,0,0,0.0719,0.073,0.0729,0.0727,0.074,0.0788,0.079,0.0813,0.0825,0.0856,0.0861,0.1104,0.1108,0.1262,0.1332,0.1441,0,0,0,0.0721,0.0781,0.0729,0.0805,0.074,0.0857,0.079,0.0871,0.091,0.0858,0.1106,0.111,0.126,0.1324,0.1432,0.1418,0.1456,0,0,0.0813,0.0792,0.0841,0.0797,0.0912,0.0854,0.1031,0.1036,0.0993,0.1081,0.1086,0.1273,0.1331,0.1439,0.167,0.17,0,0,0,0.0884,0.0918,0.0942,0.0988,0.1032,0.1128,0.1135,0.1157,0.1232,0.1036,0.1315,0.1347,0.1409,0.1384,0.1409,0.1082,0.113,0.113,0.1129,0.1029,0.104,0.1146,0.1184,0.1258,0.1343,0.1425,0.1465,0.1397,0.1465,0.1515,0.1756,0.1735,0.1753,0.1417,0.1549,0.155,0.1551,0.1551,0.1202,0.1259,0.1303,0.1404,0.1483,0.1623,0.174,0.1725,0.1843,0.1727,0.1778,0.1602,0.179,0.1422,0.1563,0.1561,0.1559,0.1558,0.1557,0.1301,0.1324,0.1383,0.1518,0.169,0.1795,0.1997,0.2034,0.2008,0.2077,0.2017,0.2012,0.1658,0.2098,0.2099,0.21,0.21,0.2101,0.2102,0.1342,0.1405,0.1495,0.1634,0.1746,0.194,0.2141,0.2231,0.2279,0.2218,0.2217,0.1716,0.1922,0.1865,0.2115,0.2113,0.2111,0.211,0.2109,0.1401,0.1407,0.1548,0.1651,0.1914,0.2127,0.2296,0.2465,0.2523,0.2538,0.1963,0.2282,0.2222,0.2199,0.2149,0.2458,0.2458,0.2458,0.2458,0.141,0.143,0.1598,0.1776,0.2018,0.2227,0.2476,0.2592,0.2327,0.2069,0.1922,0.1735,0.1736,0.1632,0.1622,0.1554,0.1705,0.1703,0.1702,0.1427,0.1475,0.1603,0.1781,0.2068,0.232,0.2542,0.261,0.2057,0.1634,0.1475,0.1508,0.1189,0.1216,0.101,0.1022,0.0895,0,0]}],[{"header":{"parameterUnit":"m.s-1","parameterCategory":2,"la1":30.2992,"la2":30.254,"lo1":-89.0895,"lo2":-89.0443,"dy":0.0025,"dx":0.0025,"nx":19,"ny":19,"refTime":"2026-03-21T21:00:00:Z","depth":"2","parameterNumber":2,"parameterNumberName":"U-component_of_CURRENTS"},"data":[0,0,0,0.1838,0.1844,0.2184,0.2186,0.2512,0.2514,0,0,0,0,0,0,0,0,0,0,0,0.169,0.1691,0.1837,0.1845,0.2184,0.2186,0.2511,0.2514,0,0,0,0,0,0,0,0,0,0,0,0.169,0.1691,0.1693,0.1846,0.2183,0.2186,0.2511,0.2287,0,0,0,0,0,0,0,0,0,0,0.1973,0.1871,0.1691,0.1693,0.1848,0.2183,0.2186,0.2277,0.23,0.232,0,0.2344,0,0.2439,0.2531,0.2532,0,0,0,0.1867,0.1852,0.1917,0.1693,0.1851,0.2182,0.2037,0.2291,0.2317,0.235,0.235,0.2364,0.2444,0.2533,0.2534,0.2904,0.2906,0,0,0.1848,0.1788,0.1899,0.1932,0.19,0.2026,0.2047,0.2309,0.2331,0.2351,0.2373,0.2449,0.2535,0.2537,0.2902,0.2904,0,0,0,0.1779,0.1775,0.1838,0.1916,0.1989,0.2035,0.206,0.2321,0.2333,0.2377,0.2453,0.2536,0.2539,0.29,0.2903,0.3001,0,0,0,0.1769,0.1734,0.1828,0.1802,0.1983,0.2183,0.2065,0.2314,0.2349,0.2452,0.2536,0.2542,0.2897,0.2901,0.2993,0.2844,0,0,0,0.1682,0.1727,0.1747,0.1796,0.1935,0.2181,0.2213,0.2325,0.2394,0.2532,0.2543,0.2896,0.29,0.2986,0.284,0.282,0,0,0,0.1636,0.1743,0.1745,0.1892,0.1931,0.2182,0.2212,0.2415,0.2538,0.2537,0.2897,0.2902,0.2984,0.2837,0.2818,0.265,0.2645,0,0,0.1763,0.1757,0.1847,0.1859,0.2039,0.2139,0.2398,0.2549,0.2624,0.2801,0.2812,0.2996,0.2839,0.282,0.294,0.2925,0,0,0,0.1885,0.1887,0.1963,0.205,0.2229,0.2374,0.2564,0.2673,0.2907,0.2718,0.3071,0.2965,0.2951,0.2851,0.2842,0.2926,0.2926,0.2925,0.2925,0.1845,0.1935,0.2035,0.2148,0.2306,0.2559,0.2702,0.2879,0.3004,0.3147,0.3112,0.3223,0.3132,0.3119,0.3286,0.3287,0.3287,0.3288,0.3288,0.1854,0.188,0.1975,0.212,0.2294,0.2507,0.2822,0.2964,0.318,0.3273,0.3262,0.3037,0.3113,0.3297,0.3296,0.3294,0.3293,0.3293,0.3292,0.1737,0.1772,0.1871,0.2002,0.218,0.2458,0.2608,0.2891,0.3127,0.318,0.3073,0.3069,0.3125,0.3248,0.3247,0.3246,0.3246,0.3246,0.3245,0.1592,0.1686,0.1727,0.1878,0.1979,0.2172,0.2512,0.2646,0.2869,0.3023,0.3024,0.3204,0.3205,0.3121,0.3236,0.3237,0.3239,0.324,0.324,0.1453,0.152,0.1542,0.1622,0.182,0.1924,0.2209,0.2441,0.2598,0.2645,0.2942,0.2953,0.2845,0.2852,0.276,0.2772,0.2772,0.2772,0.2772,0.1327,0.136,0.1397,0.1474,0.1602,0.1819,0.192,0.208,0.2357,0.2419,0.2434,0.2475,0.2502,0.2376,0.2394,0.2293,0.2183,0.2182,0.2181,0.1185,0.1223,0.1216,0.1352,0.1522,0.1698,0.1741,0.1805,0.1997,0.2158,0.2327,0.2734,0.2841,0.2864,0.2708,0.2724,0.2575,0,0]},{"header":{"parameterUnit":"m.s-1","parameterCategory":2,"la1":30.2992,"la2":30.254,"lo1":-89.0895,"lo2":-89.0443,"dy":0.0025,"dx":0.0025,"nx":19,"ny":19,"refTime":"2026-03-21T21:00:00:Z","depth":"2","parameterNumber":3,"parameterNumberName":"V-component_of_CURRENTS"},"data":[0,0,0,-0.0654,-0.0653,-0.0628,-0.0628,-0.0601,-0.06,0,0,0,0,0,0,0,0,0,0,0,-0.0685,-0.0684,-0.0655,-0.0653,-0.0628,-0.0628,-0.0601,-0.06,0,0,0,0,0,0,0,0,0,0,0,-0.0685,-0.0684,-0.0683,-0.0652,-0.0628,-0.0628,-0.0601,-0.0628,0,0,0,0,0,0,0,0,0,0,-0.0655,-0.0649,-0.0684,-0.0683,-0.0652,-0.0628,-0.0629,-0.063,-0.0626,-0.0601,0,-0.0585,0,-0.0564,-0.0595,-0.0595,0,0,0,-0.0691,-0.0651,-0.0652,-0.0683,-0.0651,-0.0628,-0.065,-0.0628,-0.0624,-0.0597,-0.0584,-0.0583,-0.0563,-0.0594,-0.0594,-0.0396,-0.0394,0,0,-0.0692,-0.0675,-0.0655,-0.065,-0.0627,-0.065,-0.0649,-0.0626,-0.0609,-0.0584,-0.0582,-0.0563,-0.0594,-0.0593,-0.0397,-0.0395,0,0,0,-0.067,-0.0676,-0.0679,-0.0652,-0.0631,-0.0649,-0.0647,-0.0611,-0.0614,-0.0581,-0.0562,-0.0593,-0.0593,-0.0399,-0.0397,-0.0241,0,0,0,-0.0673,-0.066,-0.0679,-0.0668,-0.0631,-0.0612,-0.0632,-0.0617,-0.0612,-0.0563,-0.0593,-0.0592,-0.0401,-0.0398,-0.0249,-0.0273,0,0,0,-0.0689,-0.0661,-0.0656,-0.0667,-0.0638,-0.0612,-0.0615,-0.0616,-0.0598,-0.0595,-0.0592,-0.0402,-0.0398,-0.0256,-0.0282,-0.0258,0,0,0,-0.0679,-0.0606,-0.0655,-0.0573,-0.0638,-0.0582,-0.0615,-0.0571,-0.0559,-0.0593,-0.0401,-0.0397,-0.0258,-0.0288,-0.0263,-0.0331,-0.0314,0,0,-0.0574,-0.0593,-0.0547,-0.0589,-0.0519,-0.0589,-0.0489,-0.0488,-0.049,-0.042,-0.0415,-0.0246,-0.0283,-0.0259,-0.0113,-0.0103,0,0,0,-0.0505,-0.0494,-0.0479,-0.0452,-0.0436,-0.0432,-0.0427,-0.0385,-0.0283,-0.0456,-0.0213,-0.0243,-0.0233,-0.0281,-0.0271,-0.0379,-0.0379,-0.038,-0.038,-0.0434,-0.0421,-0.0357,-0.0354,-0.0317,-0.0299,-0.0257,-0.0197,-0.019,-0.0087,-0.0086,0.0064,0.0023,0.0027,-0.0006,-0.0005,-0.0004,-0.0004,-0.0003,-0.0362,-0.0314,-0.0308,-0.0236,-0.0217,-0.014,-0.0056,-0.002,0.0101,0.009,0.0096,-0.0079,0.0045,0.001,0.0007,0.0005,0.0004,0.0003,0.0002,-0.034,-0.0293,-0.0271,-0.0172,-0.0077,-0.0026,0.0115,0.0153,0.0193,0.0236,0.0136,0.0132,0.0075,0.0258,0.0258,0.0258,0.0258,0.0259,0.0259,-0.0298,-0.0264,-0.0179,-0.0096,0.0009,0.0143,0.022,0.0265,0.0237,0.023,0.023,0.0149,0.0141,0.0088,0.026,0.026,0.026,0.0259,0.0259,-0.0196,-0.0194,-0.0062,0.0033,0.0249,0.0434,0.0429,0.042,0.0379,0.0346,0.0222,0.0222,0.013,0.0121,0.0066,0.0222,0.0222,0.0222,0.0222,-0.0127,-0.0124,0.0091,0.027,0.0467,0.0594,0.0733,0.0596,0.0393,0.0225,0.0226,0.0203,0.0204,0.0112,0.0103,0.0046,0.0197,0.0197,0.0197,-0.0056,-0.0004,0.0195,0.0364,0.0593,0.0794,0.0899,0.0777,0.0409,0.0201,0.0267,0.0211,0.0176,0.0178,0.0028,0.0019,-0.0077,0,0]}],[{"header":{"parameterUnit":"m.s-1","parameterCategory":2,"la1":30.2992,"la2":30.254,"lo1":-89.0895,"lo2":-89.0443,"dy":0.0025,"dx":0.0025,"nx":19,"ny":19,"refTime":"2026-03-21T21:00:00:Z","depth":"4","parameterNumber":2,"parameterNumberName":"U-component_of_CURRENTS"},"data":[0,0,0,0.0607,0.0609,0.0734,0.0735,0.0758,0.0758,0,0,0,0,0,0,0,0,0,0,0,0.0578,0.058,0.0606,0.0609,0.0734,0.0735,0.0758,0.0758,0,0,0,0,0,0,0,0,0,0,0,0.0578,0.0579,0.0581,0.061,0.0734,0.0735,0.0758,0.0699,0,0,0,0,0,0,0,0,0,0,0.0595,0.0578,0.0579,0.0581,0.0611,0.0734,0.0735,0.0697,0.0702,0.0661,0,0.0697,0,0.0716,0.0756,0.0756,0,0,0,0.0614,0.0574,0.0613,0.0581,0.0612,0.0734,0.0679,0.0701,0.0707,0.0667,0.0698,0.0699,0.0717,0.0755,0.0755,0.0768,0.0769,0,0,0.0607,0.0588,0.061,0.0618,0.0662,0.0675,0.0683,0.0706,0.0712,0.0698,0.07,0.0717,0.0755,0.0755,0.0768,0.0769,0,0,0,0.0584,0.0583,0.0626,0.0616,0.0643,0.0678,0.0688,0.0711,0.0728,0.0701,0.0717,0.0755,0.0755,0.0768,0.0768,0.0879,0,0,0,0.058,0.057,0.0623,0.0611,0.0644,0.0694,0.0692,0.0728,0.0731,0.0717,0.0755,0.0754,0.0767,0.0768,0.0876,0.0919,0,0,0,0.0569,0.0568,0.0591,0.061,0.0662,0.0695,0.0714,0.073,0.0739,0.0756,0.0754,0.0767,0.0768,0.0872,0.0913,0.0979,0,0,0,0.0534,0.0562,0.0591,0.0621,0.0661,0.0731,0.0715,0.0768,0.0789,0.0755,0.0767,0.0768,0.0871,0.0909,0.0975,0.0824,0,0,0,0.0543,0.0563,0.0578,0.0606,0.0676,0.0713,0.0786,0.0811,0.0782,0.0749,0.0751,0.0877,0.0912,0.0978,0.0875,0,0,0,0,0.0561,0.0584,0.0607,0.0657,0.0711,0.0796,0.0828,0.0834,0.086,0.0798,0.0863,0.0881,0.092,0.0818,0.0772,0.0772,0.0772,0.0772,0.0772,0.055,0.0586,0.0633,0.0701,0.0758,0.0855,0.0917,0.0931,0.0898,0.0925,0.0962,0.1073,0.0968,0.0952,0.0952,0.0953,0.0953,0.0953,0.0954,0.0562,0.058,0.0661,0.0722,0.0822,0.09,0.0994,0.102,0.1094,0.103,0.1063,0.0929,0.0964,0.0962,0.0961,0.0959,0.0959,0.0958,0.0957,0.0528,0.0546,0.0603,0.0707,0.0831,0.0947,0.1066,0.1146,0.1178,0.1245,0.1135,0.1148,0.115,0.1274,0.1275,0.1275,0.1276,0.1276,0.1277,0.0459,0.0521,0.0575,0.0696,0.0776,0.092,0.1114,0.1189,0.1277,0.1239,0.1288,0.1181,0.117,0.1167,0.1284,0.1283,0.1282,0.1281,0.1281,0.0403,0.0438,0.0508,0.0578,0.0756,0.0853,0.1047,0.1195,0.1274,0.1291,0.1227,0.1227,0.1173,0.1163,0.1157,0.1276,0.1275,0.1273,0,0.0352,0.0377,0.0466,0.0554,0.0668,0.0813,0.0924,0.1056,0.1155,0.1111,0.1246,0.1167,0.1167,0.1095,0.1084,0.1071,0,0,0,0.0324,0.0357,0.0404,0.0508,0.0626,0.0795,0.0956,0.0981,0.1132,0.119,0.1236,0.1246,0.1246,0.1308,0.1226,0.1213,0.1204,0,0]},{"header":{"parameterUnit":"m.s-1","parameterCategory":2,"la1":30.2992,"la2":30.254,"lo1":-89.0895,"lo2":-89.0443,"dy":0.0025,"dx":0.0025,"nx":19,"ny":19,"refTime":"2026-03-21T21:00:00:Z","depth":"4","parameterNumber":3,"parameterNumberName":"V-component_of_CURRENTS"},"data":[0,0,0,-0.0155,-0.0158,-0.0335,-0.0335,-0.0548,-0.0549,0,0,0,0,0,0,0,0,0,0,0,-0.009,-0.0091,-0.0155,-0.0158,-0.0334,-0.0335,-0.0547,-0.0549,0,0,0,0,0,0,0,0,0,0,0,-0.009,-0.0091,-0.0092,-0.0159,-0.0334,-0.0335,-0.0547,-0.0421,0,0,0,0,0,0,0,0,0,0,-0.0253,-0.0204,-0.009,-0.0092,-0.016,-0.0334,-0.0336,-0.0415,-0.0428,-0.0459,0,-0.0478,0,-0.0515,-0.0562,-0.0563,0,0,0,-0.0173,-0.0192,-0.0224,-0.0092,-0.0161,-0.0334,-0.0259,-0.0423,-0.0438,-0.0477,-0.0482,-0.049,-0.0518,-0.0563,-0.0564,-0.0728,-0.0728,0,0,-0.0163,-0.0143,-0.0213,-0.0233,-0.0197,-0.0253,-0.0264,-0.0432,-0.0453,-0.0482,-0.0495,-0.0522,-0.0564,-0.0566,-0.0727,-0.0728,0,0,0,-0.0125,-0.0136,-0.0164,-0.0224,-0.0255,-0.0258,-0.0271,-0.0446,-0.0451,-0.0498,-0.0524,-0.0565,-0.0568,-0.0727,-0.0728,-0.0685,0,0,0,-0.012,-0.0113,-0.0159,-0.0152,-0.0251,-0.0359,-0.0281,-0.0439,-0.0459,-0.0523,-0.0565,-0.057,-0.0727,-0.0727,-0.0685,-0.0618,0,0,0,-0.0084,-0.011,-0.0123,-0.015,-0.0219,-0.0356,-0.0373,-0.0445,-0.0475,-0.0563,-0.057,-0.0726,-0.0727,-0.0685,-0.0621,-0.0592,0,0,0,-0.0067,-0.0105,-0.0122,-0.0165,-0.0217,-0.0308,-0.0372,-0.0463,-0.0533,-0.0566,-0.0727,-0.0727,-0.0685,-0.0622,-0.0594,-0.0486,0,0,0,-0.0104,-0.011,-0.0129,-0.0148,-0.0207,-0.0285,-0.0381,-0.0498,-0.0559,-0.0672,-0.0677,-0.0685,-0.0621,-0.0593,-0.0543,0,0,0,0,-0.0133,-0.0136,-0.0159,-0.0195,-0.0263,-0.0326,-0.0453,-0.0517,-0.0629,-0.0605,-0.0716,-0.0676,-0.066,-0.0605,-0.0732,-0.0732,-0.0732,-0.0732,-0.0732,-0.0142,-0.0154,-0.0176,-0.0202,-0.026,-0.038,-0.0443,-0.0553,-0.0633,-0.0676,-0.0666,-0.0643,-0.0589,-0.0722,-0.0721,-0.0721,-0.0721,-0.0721,-0.0721,-0.0133,-0.0127,-0.0148,-0.017,-0.0231,-0.0311,-0.0447,-0.0515,-0.0608,-0.0669,-0.0656,-0.0595,-0.0717,-0.0718,-0.0719,-0.0719,-0.0719,-0.072,-0.072,-0.0098,-0.0099,-0.0103,-0.0116,-0.0157,-0.0251,-0.0282,-0.0403,-0.0524,-0.0531,-0.0484,-0.0601,-0.0574,-0.0538,-0.0537,-0.0537,-0.0537,-0.0536,-0.0536,-0.006,-0.0067,-0.0047,-0.0057,-0.006,-0.0083,-0.0182,-0.0226,-0.0351,-0.0389,-0.0506,-0.058,-0.0586,-0.0564,-0.053,-0.0531,-0.0532,-0.0533,-0.0533,-0.0019,-0.0025,0.0013,0.0025,0.0038,0.0032,-0.0032,-0.0091,-0.0126,-0.0167,-0.0328,-0.034,-0.0332,-0.0344,-0.0312,-0.0202,-0.0201,-0.0199,0,0.0008,0.001,0.0052,0.0084,0.0116,0.0085,0.0098,0.0046,-0.0084,-0.0089,-0.017,-0.0352,-0.0361,-0.0355,-0.0363,-0.0327,0,0,0,0.0039,0.0048,0.0077,0.01,0.0135,0.0121,0.0095,0.0083,-0.0058,-0.0038,-0.0159,-0.017,-0.0345,-0.0512,-0.0528,-0.0535,-0.0499,0,0]}]]